{"data":{"norad_id":87211,"epoch":"2026-09-11T07:13:09.079392Z","epoch_age_seconds":809360,"freshness":"AGED","line1":"1 87211U          26254.30079953  .00001805  00000+0  48972-3 0  9990","line2":"2 87211  99.0799 279.0846 0053017  68.4116 352.6255 14.48160742747207","mean_motion":14.48160742,"eccentricity":0.0053017,"inclination_deg":99.0799,"raan_deg":279.0846,"arg_perigee_deg":68.4116,"mean_anomaly_deg":352.6255,"bstar":0.00048972,"rev_number":74720,"period_min":99.436475401983,"perigee_km":693.96805857714,"apogee_km":769.35610214585,"semimajor_km":7109.7990803615,"source":"CELESTRAK","updated_at":"2026-09-20T09:00:32.451627Z"}}